Meteo pe oră la Dzialowo

Astăzi, 16 Ianuarie, Sâmbătă

Timp Temperatura Precipitaţii Vânt Presiune Umiditate
00:00 -7°C° 0 mm 2 m/s 756 mmHg 94%
01:00 -8°C° 0 mm 2 m/s 755 mmHg 94%
02:00 -7°C° 0 mm 2 m/s 755 mmHg 94%
03:00 -7°C° 0 mm 2 m/s 755 mmHg 94%
04:00 -7°C° 0 mm 2 m/s 755 mmHg 94%
05:00 -7°C° 0 mm 3 m/s 755 mmHg 93%
06:00 -7°C° 0 mm 3 m/s 755 mmHg 92%
07:00 -7°C° 0 mm 4 m/s 754 mmHg 92%
08:00 -7°C° 0 mm 4 m/s 754 mmHg 89%
09:00 -7°C° 0 mm 5 m/s 753 mmHg 86%
10:00 -6°C° 0 mm 6 m/s 753 mmHg 84%
11:00 -6°C° 0.2 mm 6 m/s 752 mmHg 86%
12:00 -6°C° 0.2 mm 6 m/s 751 mmHg 89%
13:00 -7°C° 0.2 mm 7 m/s 751 mmHg 91%
14:00 -6°C° 0.7 mm 6 m/s 750 mmHg 91%
15:00 -6°C° 0.7 mm 6 m/s 750 mmHg 91%
16:00 -6°C° 0.7 mm 5 m/s 750 mmHg 92%
17:00 -8°C° 0.1 mm 5 m/s 750 mmHg 92%
18:00 -10°C° 0.1 mm 4 m/s 750 mmHg 91%
19:00 -12°C° 0.1 mm 4 m/s 751 mmHg 91%
20:00 -15°C° 0 mm 4 m/s 751 mmHg 91%
21:00 -15°C° 0 mm 3 m/s 752 mmHg 91%
22:00 -16°C° 0 mm 3 m/s 753 mmHg 90%
23:00 -17°C° 0 mm 3 m/s 753 mmHg 90%

Mâine, 17 Ianuarie, Duminică

Timp Temperatura Precipitaţii Vânt Presiune Umiditate
00:00 -18°C° 0 mm 3 m/s 753 mmHg 90%
01:00 -19°C° 0 mm 3 m/s 754 mmHg 90%
02:00 -19°C° 0 mm 3 m/s 754 mmHg 90%
03:00 -21°C° 0 mm 3 m/s 754 mmHg 90%
04:00 -19°C° 0 mm 2 m/s 754 mmHg 91%
05:00 -19°C° 0 mm 2 m/s 755 mmHg 90%
06:00 -20°C° 0 mm 2 m/s 755 mmHg 90%
07:00 -20°C° 0 mm 2 m/s 755 mmHg 89%
08:00 -19°C° 0 mm 2 m/s 755 mmHg 87%
09:00 -16°C° 0 mm 1 m/s 756 mmHg 86%
10:00 -16°C° 0 mm 1 m/s 756 mmHg 84%
11:00 -15°C° 0 mm 1 m/s 756 mmHg 82%
12:00 -14°C° 0 mm 1 m/s 757 mmHg 80%
13:00 -13°C° 0 mm 1 m/s 757 mmHg 79%
14:00 -13°C° 0 mm 1 m/s 757 mmHg 82%
15:00 -14°C° 0 mm 1 m/s 757 mmHg 85%
16:00 -15°C° 0 mm 1 m/s 756 mmHg 88%
17:00 -15°C° 0 mm 1 m/s 757 mmHg 88%
18:00 -16°C° 0 mm 0 m/s 757 mmHg 87%
19:00 -16°C° 0 mm 0 m/s 757 mmHg 87%
20:00 -16°C° 0 mm 0 m/s 757 mmHg 87%
21:00 -16°C° 0 mm 0 m/s 757 mmHg 87%
22:00 -16°C° 0 mm 1 m/s 758 mmHg 87%
23:00 -16°C° 0 mm 1 m/s 758 mmHg 88%

Poimâine, 18 Ianuarie, Luni

Timp Temperatura Precipitaţii Vânt Presiune Umiditate
00:00 -16°C° 0 mm 1 m/s 758 mmHg 89%
01:00 -16°C° 0 mm 1 m/s 758 mmHg 90%
02:00 -16°C° 0 mm 1 m/s 757 mmHg 90%
03:00 -16°C° 0 mm 1 m/s 757 mmHg 91%
04:00 -16°C° 0 mm 1 m/s 757 mmHg 92%
05:00 -16°C° 0 mm 1 m/s 757 mmHg 91%
06:00 -16°C° 0 mm 1 m/s 757 mmHg 91%
07:00 -18°C° 0 mm 2 m/s 757 mmHg 91%
08:00 -17°C° 0 mm 2 m/s 757 mmHg 91%
09:00 -16°C° 0 mm 2 m/s 757 mmHg 90%
10:00 -16°C° 0 mm 2 m/s 757 mmHg 90%
11:00 -16°C° 0 mm 3 m/s 757 mmHg 90%
12:00 -15°C° 0 mm 3 m/s 756 mmHg 89%
13:00 -14°C° 0 mm 3 m/s 756 mmHg 88%
14:00 -14°C° 0 mm 3 m/s 756 mmHg 89%
15:00 -15°C° 0 mm 3 m/s 756 mmHg 90%
16:00 -15°C° 0 mm 3 m/s 755 mmHg 91%
17:00 -15°C° 0 mm 3 m/s 755 mmHg 91%
18:00 -14°C° 0 mm 3 m/s 755 mmHg 91%
19:00 -14°C° 0 mm 3 m/s 754 mmHg 90%
20:00 -14°C° 0 mm 3 m/s 754 mmHg 92%
21:00 -13°C° 0 mm 3 m/s 754 mmHg 93%
22:00 -13°C° 0 mm 3 m/s 753 mmHg 95%
23:00 -12°C° 0.3 mm 3 m/s 753 mmHg 95%

19 Ianuarie, Marţi

Timp Temperatura Precipitaţii Vânt Presiune Umiditate
00:00 -9°C° 0.3 mm 3 m/s 753 mmHg 95%
01:00 -8°C° 0.3 mm 3 m/s 752 mmHg 95%
02:00 -7°C° 0.3 mm 3 m/s 752 mmHg 96%
03:00 -6°C° 0.3 mm 3 m/s 751 mmHg 96%
04:00 -4°C° 0.3 mm 3 m/s 751 mmHg 97%
05:00 -2°C° 0 mm 3 m/s 751 mmHg 97%
06:00 -1°C° 0 mm 3 m/s 751 mmHg 97%
07:00 0°C° 0 mm 3 m/s 751 mmHg 98%
08:00 0°C° 0 mm 3 m/s 751 mmHg 98%
09:00 -1°C° 0 mm 4 m/s 751 mmHg 98%
10:00 -1°C° 0 mm 4 m/s 751 mmHg 98%
11:00 -1°C° 0 mm 4 m/s 750 mmHg 99%
12:00 -1°C° 0 mm 4 m/s 750 mmHg 99%
13:00 -1°C° 0 mm 4 m/s 750 mmHg 99%
14:00 -1°C° 0 mm 4 m/s 749 mmHg 98%
15:00 -1°C° 0 mm 4 m/s 749 mmHg 96%
16:00 -2°C° 0 mm 4 m/s 749 mmHg 95%
17:00 -2°C° 0.2 mm 5 m/s 748 mmHg 96%
18:00 -2°C° 0.2 mm 5 m/s 748 mmHg 96%
19:00 -2°C° 0.2 mm 5 m/s 747 mmHg 97%
20:00 -2°C° 0.5 mm 5 m/s 747 mmHg 97%
21:00 -3°C° 0.5 mm 6 m/s 746 mmHg 97%
22:00 -3°C° 0.5 mm 6 m/s 745 mmHg 97%
23:00 -3°C° 0.6 mm 6 m/s 745 mmHg 98%

20 Ianuarie, Miercuri

Timp Temperatura Precipitaţii Vânt Presiune Umiditate
00:00 -2°C° 0.6 mm 6 m/s 745 mmHg 98%
01:00 0°C° 0.6 mm 5 m/s 744 mmHg 99%
02:00 -1°C° 0.4 mm 6 m/s 744 mmHg 99%
03:00 -1°C° 0.4 mm 6 m/s 744 mmHg 98%
04:00 -1°C° 0.4 mm 6 m/s 744 mmHg 98%
05:00 -1°C° 0.1 mm 6 m/s 744 mmHg 98%
06:00 0°C° 0.1 mm 5 m/s 744 mmHg 98%
07:00 -1°C° 0.1 mm 5 m/s 744 mmHg 97%
08:00 -1°C° 0 mm 5 m/s 744 mmHg 97%
09:00 -1°C° 0 mm 5 m/s 744 mmHg 96%
10:00 -1°C° 0 mm 6 m/s 744 mmHg 96%
11:00 -1°C° 0 mm 6 m/s 744 mmHg 95%
12:00 -1°C° 0 mm 6 m/s 743 mmHg 95%
13:00 -1°C° 0 mm 6 m/s 743 mmHg 95%
14:00 -1°C° 0 mm 6 m/s 743 mmHg 93%
15:00 0°C° 0 mm 5 m/s 743 mmHg 91%
16:00 0°C° 0 mm 5 m/s 743 mmHg 88%
17:00 0°C° 0.1 mm 5 m/s 743 mmHg 89%
18:00 0°C° 0.1 mm 5 m/s 742 mmHg 90%
19:00 0°C° 0.1 mm 5 m/s 742 mmHg 91%
20:00 0°C° 0 mm 5 m/s 742 mmHg 91%
21:00 0°C° 0 mm 5 m/s 742 mmHg 90%
22:00 0°C° 0 mm 5 m/s 742 mmHg 90%
23:00 0°C° 0 mm 5 m/s 742 mmHg 88%

21 Ianuarie, Joi

Timp Temperatura Precipitaţii Vânt Presiune Umiditate
00:00 -1°C° 0 mm 5 m/s 742 mmHg 86%
01:00 -1°C° 0 mm 5 m/s 742 mmHg 85%
02:00 -1°C° 0 mm 5 m/s 742 mmHg 83%
03:00 -1°C° 0 mm 5 m/s 742 mmHg 81%
04:00 -2°C° 0 mm 6 m/s 742 mmHg 80%
05:00 -2°C° 0 mm 6 m/s 742 mmHg 81%
06:00 -2°C° 0 mm 6 m/s 742 mmHg 82%
07:00 -1°C° 0 mm 5 m/s 742 mmHg 84%
08:00 0°C° 0 mm 5 m/s 742 mmHg 87%
09:00 0°C° 0 mm 5 m/s 741 mmHg 90%
10:00 0°C° 0 mm 5 m/s 741 mmHg 93%
11:00 0°C° 0 mm 5 m/s 741 mmHg 94%
12:00 0°C° 0 mm 5 m/s 740 mmHg 95%
13:00 -1°C° 0 mm 6 m/s 740 mmHg 96%
14:00 0°C° 0 mm 5 m/s 740 mmHg 95%
15:00 0°C° 0 mm 5 m/s 740 mmHg 93%
16:00 0°C° 0 mm 5 m/s 740 mmHg 92%
17:00 0°C° 0 mm 5 m/s 741 mmHg 91%
18:00 0°C° 0 mm 5 m/s 741 mmHg 91%
19:00 0°C° 0 mm 4 m/s 742 mmHg 90%
20:00 -1°C° 0 mm 4 m/s 742 mmHg 91%
21:00 -1°C° 0 mm 4 m/s 743 mmHg 92%
22:00 -1°C° 0 mm 4 m/s 743 mmHg 93%
23:00 -1°C° 0 mm 4 m/s 744 mmHg 93%
Arată mai mult

Formular de consimțământ

Meteoprog și furnizorii noștri de servicii pot stoca și accesa date personale, precum cookies, identificatori de dispozitiv sau alte tehnologii similare pe dispozitivul dumneavoastră și procesa astfel de date pentru a personaliza conținutul și reclamele, dar și pentru a oferi caracteristici de social media și pentru a analiza traficul.

  • Stocarea și/sau accesarea informațiilor pe dispozitivul dumneavoastră

    Cookies, identificatori de dispozitiv sau alte informații pot fi stocate sau accesate pe dispozitiv în scopurile indicate mai sus.

  • Reclame și conținut personalizat, evaluarea reclamelor și a conținutului, informații despre audiențe și dezvoltarea produselor

    Reclamele și conținutul pot fi personalizate pe baza unui profil. Pot fi adăugate date suplimentare pentru a personaliza mai bine reclamele și conținutul. Performanța reclamelor și conținutului poate fi măsurată. Pot fi obținute informații despre utilizatorii care au văzut reclamele și conținutul. Aceste date pot fi utilizate pentru a dezvolta sau îmbunătăți experiența utilizatorilor, sistemele și software-ul.

Dând clic pe ‘Sunt de acord’, permiteți utilizarea cookie-urilor menționate, a identificatorilor de dispozitiv, balizelor web sau altor tehnologii similare. Setările pot fi modificate din browser-ul dispozitivului dumneavoastră.

În anumite scopuri, interesele legitime pot prima asupra consimțământului. Puteți citi mai multe informații în acest sens în Politica privind Confidențialitatea Datelor și Cookie.